"Period start","avg(HW err(1)/warn(2) (#))","avg(Visibility (m))","avg(Weather code (#))","avg(Precip intensity (mm/h))","min(HW err(1)/warn(2) (#))","max(HW err(1)/warn(2) (#))","std(HW err(1)/warn(2) (#))","med(HW err(1)/warn(2) (#))","min(Visibility (m))","max(Visibility (m))","std(Visibility (m))","med(Visibility (m))","min(Weather code (#))","max(Weather code (#))","std(Weather code (#))","med(Weather code (#))","min(Precip intensity (mm/h))","max(Precip intensity (mm/h))","std(Precip intensity (mm/h))","med(Precip intensity (mm/h))"
2017-09-05 00:00:00,1,8595,4,0.00,0,2,1,0,1917,19585,5367,7493,4,4,0,4,0.00,0.00,0.00,0.00
2017-09-05 00:10:00,0,5399,8,0.00,0,0,0,0,2913,8069,1694,5450,4,10,3,10,0.00,0.00,0.00,0.00
2017-09-05 00:20:00,0,4644,10,0.00,0,0,0,0,2340,7546,1784,4608,10,10,0,10,0.00,0.00,0.00,0.00
2017-09-05 00:30:00,0,6152,10,0.00,0,2,1,0,2464,11178,3007,4818,10,10,0,10,0.00,0.00,0.00,0.00
2017-09-05 00:40:00,2,8033,10,0.00,0,2,1,2,3354,19823,4804,6372,10,10,0,10,0.00,0.00,0.00,0.00
2017-09-05 00:50:00,2,4008,10,0.00,2,2,0,2,1957,6268,1358,3978,10,10,0,10,0.00,0.00,0.00,0.00
2017-09-05 01:00:00,2,5408,10,0.00,2,2,0,2,3929,6621,1018,5480,10,10,0,10,0.00,0.00,0.00,0.00
2017-09-05 01:10:00,2,5082,10,0.00,2,2,0,2,3339,7406,1482,4919,10,10,0,10,0.00,0.00,0.00,0.00
2017-09-05 01:20:00,2,4176,10,0.00,2,2,0,2,2974,5232,708,4178,10,10,0,10,0.00,0.00,0.00,0.00
2017-09-05 01:30:00,2,5185,10,0.00,2,2,0,2,3921,8748,1510,4480,10,10,0,10,0.00,0.00,0.00,0.00
2017-09-05 01:40:00,2,6463,10,0.00,2,2,0,2,4339,8659,1554,6148,10,10,0,10,0.00,0.00,0.00,0.00
2017-09-05 01:50:00,2,3131,10,0.00,2,2,0,2,2145,4302,687,2962,10,10,0,10,0.00,0.00,0.00,0.00
2017-09-05 02:00:00,2,3798,10,0.00,2,2,0,2,2516,6418,1266,3344,10,10,0,10,0.00,0.00,0.00,0.00
2017-09-05 02:10:00,2,7901,10,0.00,2,2,0,2,4489,11958,2453,8565,10,10,0,10,0.00,0.00,0.00,0.00
2017-09-05 02:20:00,2,5152,10,0.00,2,2,0,2,3254,10251,1993,4504,10,10,0,10,0.00,0.00,0.00,0.00
2017-09-05 02:30:00,2,4929,10,0.00,2,2,0,2,1949,11106,2844,4588,10,10,0,10,0.00,0.00,0.00,0.00
2017-09-05 02:40:00,2,6133,10,0.00,2,2,0,2,2477,13975,4050,3733,10,10,0,10,0.00,0.00,0.00,0.00
2017-09-05 02:50:00,2,4870,10,0.00,2,2,0,2,2308,12485,2832,3988,10,10,0,10,0.00,0.00,0.00,0.00
2017-09-05 03:00:00,2,2661,16,0.09,2,2,0,2,2105,3434,349,2586,10,40,12,10,0.00,0.50,0.18,0.00
2017-09-05 03:10:00,2,1765,41,0.09,2,2,0,2,944,3493,742,1664,41,41,0,41,0.00,0.20,0.07,0.08
2017-09-05 03:20:00,2,4974,21,0.00,2,2,0,2,2587,7538,1824,4810,10,61,18,10,0.00,0.00,0.00,0.00
2017-09-05 03:30:00,2,13794,10,0.00,2,2,0,2,3284,38426,11493,8850,10,10,0,10,0.00,0.00,0.00,0.00
2017-09-05 03:40:00,2,8099,9,0.00,2,2,0,2,700,20682,6843,6380,0,10,3,10,0.00,0.00,0.00,0.00
2017-09-05 03:50:00,2,3951,10,0.00,2,2,0,2,824,10850,3489,2188,10,10,0,10,0.00,0.00,0.00,0.00
2017-09-05 04:00:00,2,8314,10,0.00,2,2,0,2,3809,20494,5047,6772,10,10,0,10,0.00,0.00,0.00,0.00
2017-09-05 04:10:00,2,8874,10,0.00,2,2,0,2,3120,17254,5162,7744,10,10,0,10,0.00,0.00,0.00,0.00
2017-09-05 04:20:00,2,9728,10,0.00,2,2,0,2,1756,34822,12150,2390,10,10,0,10,0.00,0.00,0.00,0.00
2017-09-05 04:30:00,2,2941,10,0.00,2,2,0,2,2008,3789,556,2962,10,10,0,10,0.00,0.00,0.00,0.00
2017-09-05 04:40:00,2,6005,10,0.00,2,2,0,2,2987,11316,2776,5053,10,10,0,10,0.00,0.00,0.00,0.00
2017-09-05 04:50:00,2,3697,10,0.00,2,2,0,2,1750,6289,1693,2983,10,10,0,10,0.00,0.00,0.00,0.00
2017-09-05 05:00:00,2,9922,22,0.07,2,2,0,2,3069,21480,4968,9899,10,41,15,10,0.00,0.55,0.16,0.00
2017-09-05 05:10:00,2,3954,13,0.07,2,2,0,2,1488,9239,2074,3734,10,40,9,10,0.00,0.65,0.20,0.00
2017-09-05 05:20:00,2,8803,44,0.58,2,2,0,2,1997,37283,10815,4226,10,61,23,61,0.00,1.90,0.71,0.33
2017-09-05 05:30:00,2,4023,30,1.02,2,2,0,2,1730,11723,3627,2248,10,61,25,10,0.00,4.90,1.67,0.00
2017-09-05 05:40:00,2,6550,20,0.42,2,2,0,2,1159,18012,5570,3292,10,61,20,10,0.00,2.70,0.88,0.00
2017-09-05 05:50:00,2,1391,61,1.15,2,2,0,2,895,2591,463,1320,61,61,0,61,0.25,2.25,0.60,1.20
2017-09-05 06:00:00,2,2363,36,0.67,2,2,0,2,1219,5064,1267,1804,10,61,26,36,0.00,1.70,0.73,0.28
2017-09-05 06:10:00,2,13665,25,0.20,2,2,0,2,1173,35694,14249,3294,10,61,23,10,0.00,1.10,0.37,0.00
2017-09-05 06:20:00,2,18733,6,0.00,2,2,0,2,3594,40706,13674,13755,0,10,5,10,0.00,0.00,0.00,0.00
2017-09-05 06:30:00,2,9516,8,0.00,2,2,0,2,4088,26185,6416,6944,0,10,4,10,0.00,0.00,0.00,0.00
2017-09-05 06:40:00,2,5935,19,0.34,2,2,0,2,1382,12266,3846,5315,10,40,14,10,0.00,2.75,0.82,0.00
2017-09-05 06:50:00,2,2579,46,0.31,2,2,0,2,1137,5346,1504,1959,10,71,17,41,0.00,0.75,0.25,0.28
2017-09-05 07:00:00,2,3475,43,0.82,2,2,0,2,1192,7126,2071,2842,10,71,27,61,0.00,2.90,0.97,0.40
2017-09-05 07:10:00,2,6206,10,0.00,2,2,0,2,3468,8647,1741,6616,10,10,0,10,0.00,0.00,0.00,0.00
2017-09-05 07:20:00,2,4905,10,0.00,2,2,0,2,2975,6717,1236,4560,10,10,0,10,0.00,0.00,0.00,0.00
2017-09-05 07:30:00,2,6521,10,0.00,2,2,0,2,3115,8957,1808,6779,10,10,0,10,0.00,0.00,0.00,0.00
2017-09-05 07:40:00,2,30164,10,0.00,2,2,0,2,8558,49374,13026,31406,10,10,0,10,0.00,0.00,0.00,0.00
2017-09-05 07:50:00,2,30932,0,0.00,2,2,0,2,7558,50000,17551,39982,0,0,0,0,0.00,0.00,0.00,0.00
2017-09-05 08:00:00,2,11059,0,0.00,2,2,0,2,5526,15714,3373,10936,0,0,0,0,0.00,0.00,0.00,0.00
2017-09-05 08:10:00,2,10695,9,0.00,2,2,0,2,2352,38290,11608,4989,0,10,3,10,0.00,0.00,0.00,0.00
2017-09-05 08:20:00,2,11871,21,0.34,2,2,0,2,2571,42469,12931,5273,10,61,18,10,0.00,2.15,0.67,0.00
2017-09-05 08:30:00,2,17530,18,0.15,2,2,0,2,2504,50000,20080,4764,0,41,15,10,0.00,0.55,0.23,0.00
2017-09-05 08:40:00,2,5688,45,0.65,2,2,0,2,2060,15945,4069,3975,10,61,19,52,0.00,4.80,1.41,0.12
2017-09-05 08:50:00,2,4044,56,0.49,2,2,0,2,1867,7231,1430,4160,10,61,15,61,0.00,2.80,0.81,0.23
2017-09-05 09:00:00,2,6213,10,0.00,2,2,0,2,2382,16497,4500,4710,10,10,0,10,0.00,0.00,0.00,0.00
2017-09-05 09:10:00,2,6082,10,0.00,2,2,0,2,3550,11379,2275,5748,10,10,0,10,0.00,0.00,0.00,0.00
2017-09-05 09:20:00,2,6469,33,0.18,2,2,0,2,1805,29048,7985,3044,10,61,20,41,0.00,1.20,0.35,0.08
2017-09-05 09:30:00,2,11085,25,0.03,2,2,0,2,2897,23541,6686,11056,10,61,23,10,0.00,0.20,0.06,0.00
2017-09-05 09:40:00,2,10275,33,0.30,2,2,0,2,1694,37275,11576,4108,10,61,20,41,0.00,1.15,0.40,0.05
2017-09-05 09:50:00,2,4188,35,0.11,2,2,0,2,2179,12089,2884,2835,10,41,12,41,0.00,0.65,0.19,0.05
2017-09-05 10:00:00,2,2858,41,0.08,2,2,0,2,1934,3789,507,2832,41,41,0,41,0.00,0.15,0.06,0.08
2017-09-05 10:10:00,2,3748,34,0.11,2,2,0,2,2302,7101,1401,3580,10,61,17,41,0.00,0.60,0.18,0.03
2017-09-05 10:20:00,2,11611,10,0.00,2,2,0,2,3284,39324,10662,7001,10,10,0,10,0.00,0.00,0.00,0.00
2017-09-05 10:30:00,2,20526,10,0.00,2,2,0,2,5529,46367,13101,20771,10,10,0,10,0.00,0.00,0.00,0.00
2017-09-05 10:40:00,2,12303,8,0.00,2,2,0,2,3725,32412,7764,11465,0,10,4,10,0.00,0.00,0.00,0.00
2017-09-05 10:50:00,2,19285,16,0.07,2,2,0,2,3550,48944,17084,10664,0,41,17,10,0.00,0.40,0.13,0.00
2017-09-05 11:00:00,2,5445,47,0.23,2,2,0,2,3661,8511,1513,4903,41,61,9,41,0.00,0.60,0.18,0.17
2017-09-05 11:10:00,2,12202,15,0.00,2,2,0,2,4202,25113,6333,10583,10,61,15,10,0.00,0.00,0.00,0.00
2017-09-05 11:20:00,2,5469,10,0.00,2,2,0,2,3550,10144,1843,5064,10,10,0,10,0.00,0.00,0.00,0.00
2017-09-05 11:30:00,2,3168,48,0.39,2,2,0,2,2145,4594,864,2926,10,61,16,51,0.00,0.95,0.29,0.35
2017-09-05 11:40:00,2,2897,67,0.23,2,2,0,2,2092,3872,652,2777,61,71,5,71,0.05,0.60,0.15,0.23
2017-09-05 11:50:00,2,3525,71,0.09,2,2,0,2,2039,5202,1029,3518,71,71,0,71,0.00,0.20,0.07,0.08
2017-09-05 12:00:00,2,5342,53,0.11,2,2,0,2,2982,9453,1933,4712,41,71,15,41,0.00,0.30,0.09,0.08
2017-09-05 12:10:00,2,4933,43,0.25,2,2,0,2,2780,12137,2551,4387,41,61,6,41,0.00,0.70,0.23,0.15
2017-09-05 12:20:00,2,6359,59,0.13,2,2,0,2,3530,13635,2795,5178,51,61,4,61,0.00,0.40,0.15,0.05
2017-09-05 12:30:00,2,5953,24,0.07,2,2,0,2,3383,12124,2414,5540,10,61,18,10,0.00,0.50,0.15,0.00
2017-09-05 12:40:00,2,5272,44,0.17,2,2,0,2,4162,6118,688,5433,10,61,23,61,0.00,0.40,0.17,0.12
2017-09-05 12:50:00,2,5670,41,0.25,2,2,0,2,3389,12858,2565,5206,41,41,0,41,0.00,0.70,0.19,0.23
2017-09-05 13:00:00,2,5542,26,0.03,2,2,0,2,3901,8525,1568,5122,10,41,16,26,0.00,0.25,0.07,0.00
2017-09-05 13:10:00,2,6073,10,0.00,2,2,0,2,4505,7297,1009,6357,10,10,0,10,0.00,0.00,0.00,0.00
2017-09-05 13:20:00,2,6143,10,0.00,2,2,0,2,3451,11222,1998,5872,10,10,0,10,0.00,0.00,0.00,0.00
2017-09-05 13:30:00,2,11993,10,0.00,2,2,0,2,4282,25771,6537,9086,10,10,0,10,0.00,0.00,0.00,0.00
2017-09-05 13:40:00,2,18525,10,0.00,2,2,0,2,3740,39134,13105,14330,10,10,0,10,0.00,0.00,0.00,0.00
2017-09-05 13:50:00,2,9533,4,0.00,2,2,0,2,4998,30505,7202,7558,0,10,5,0,0.00,0.00,0.00,0.00
2017-09-05 14:00:00,2,9334,16,0.26,2,2,0,2,4568,14428,3029,8995,10,40,12,10,0.00,1.90,0.58,0.00
2017-09-05 14:10:00,2,13436,10,0.00,2,2,0,2,5641,28280,6029,11860,10,10,0,10,0.00,0.00,0.00,0.00
2017-09-05 14:20:00,2,5606,20,0.07,2,2,0,2,4031,7625,1128,5302,0,41,17,10,0.00,0.35,0.11,0.00
2017-09-05 14:30:00,2,19466,26,0.03,2,2,0,2,6700,40348,11362,17702,10,41,16,26,0.00,0.20,0.06,0.00
2017-09-05 14:40:00,2,6044,17,0.33,2,2,0,2,3818,8995,1568,5602,0,41,19,5,0.00,2.00,0.60,0.00
2017-09-05 14:50:00,2,6134,32,0.11,2,2,0,2,3910,17063,3788,4522,10,41,14,40,0.00,0.35,0.12,0.08
2017-09-05 15:00:00,2,6222,22,0.05,2,2,0,2,3180,11501,2826,5246,10,41,15,10,0.00,0.15,0.07,0.00
2017-09-05 15:10:00,2,5172,35,0.11,2,2,0,2,2749,7925,1898,5295,10,41,12,41,0.00,0.35,0.13,0.03
2017-09-05 15:20:00,2,5173,13,0.01,2,2,0,2,2748,10396,2580,4100,10,41,9,10,0.00,0.05,0.02,0.00
2017-09-05 15:30:00,2,17945,16,0.00,2,2,0,2,6403,29900,7826,18164,10,41,12,10,0.00,0.00,0.00,0.00
2017-09-05 15:40:00,2,5058,40,0.25,2,2,0,2,3488,9023,1672,4466,0,61,19,41,0.00,0.65,0.22,0.28
2017-09-05 15:50:00,2,13550,14,0.01,2,2,0,2,5183,39123,10450,8814,10,51,12,10,0.00,0.05,0.02,0.00
2017-09-05 16:00:00,2,10007,25,0.03,2,2,0,2,4547,24415,6460,6797,10,61,23,10,0.00,0.20,0.06,0.00
2017-09-05 16:10:00,2,7018,10,0.00,2,2,0,2,2936,12630,2698,7357,10,10,0,10,0.00,0.00,0.00,0.00
2017-09-05 16:20:00,2,3344,25,0.53,2,2,0,2,2409,5133,771,3146,10,61,23,10,0.00,2.55,0.94,0.00
2017-09-05 16:30:00,2,8394,23,0.35,2,2,0,2,3725,14780,3656,7914,10,52,19,10,0.00,1.90,0.61,0.00
2017-09-05 16:40:00,2,5410,30,0.14,2,2,0,2,2159,13959,3805,3568,10,61,25,10,0.00,0.75,0.23,0.00
2017-09-05 16:50:00,2,5497,36,0.01,2,2,0,2,3159,8592,1729,5350,10,61,26,36,0.00,0.05,0.02,0.00
2017-09-05 17:00:00,2,2643,41,0.90,2,2,0,2,1464,4054,758,2472,10,61,25,61,0.00,3.20,1.09,0.35
2017-09-05 17:10:00,2,3159,46,2.09,2,2,0,2,1591,7250,1572,2732,0,61,21,52,0.00,6.50,1.81,2.08
2017-09-05 17:20:00,2,5154,15,0.04,2,2,0,2,2617,9009,2405,4150,10,61,15,10,0.00,0.45,0.13,0.00
2017-09-05 17:30:00,2,12843,10,0.00,2,2,0,2,8005,18917,2833,12636,10,10,0,10,0.00,0.00,0.00,0.00
2017-09-05 17:40:00,2,9931,7,0.00,2,2,0,2,4093,25639,6280,7814,0,10,5,10,0.00,0.00,0.00,0.00
2017-09-05 17:50:00,2,27570,6,0.00,2,2,0,2,17605,43602,9166,23496,0,10,5,10,0.00,0.00,0.00,0.00
2017-09-05 18:00:00,2,31314,0,0.00,2,2,0,2,21561,45654,8266,29183,0,0,0,0,0.00,0.00,0.00,0.00
2017-09-05 18:10:00,2,23341,0,0.00,2,2,0,2,16326,31509,5765,21412,0,0,0,0,0.00,0.00,0.00,0.00
2017-09-05 18:20:00,2,34062,0,0.00,2,2,0,2,29413,42053,4307,32425,0,0,0,0,0.00,0.00,0.00,0.00
2017-09-05 18:30:00,2,32106,0,0.00,2,2,0,2,25753,39603,3955,31702,0,0,0,0,0.00,0.00,0.00,0.00
2017-09-05 18:40:00,2,39108,0,0.00,2,2,0,2,33432,45675,3873,38930,0,0,0,0,0.00,0.00,0.00,0.00
2017-09-05 18:50:00,2,44735,0,0.00,2,2,0,2,38789,50000,3702,43674,0,0,0,0,0.00,0.00,0.00,0.00
2017-09-05 19:00:00,2,39291,0,0.00,2,2,0,2,32453,48647,5733,37324,0,0,0,0,0.00,0.00,0.00,0.00
2017-09-05 19:10:00,2,40754,0,0.00,2,2,0,2,30028,50000,6311,38987,0,0,0,0,0.00,0.00,0.00,0.00
2017-09-05 19:20:00,2,40452,0,0.00,2,2,0,2,27068,50000,7025,42076,0,0,0,0,0.00,0.00,0.00,0.00
2017-09-05 19:30:00,2,40587,0,0.00,2,2,0,2,30478,47853,5020,41595,0,0,0,0,0.00,0.00,0.00,0.00
2017-09-05 19:40:00,2,38121,0,0.00,2,2,0,2,29727,48792,6345,35994,0,0,0,0,0.00,0.00,0.00,0.00
2017-09-05 19:50:00,2,39197,0,0.00,2,2,0,2,32499,46739,3709,38892,0,0,0,0,0.00,0.00,0.00,0.00
2017-09-05 20:00:00,2,36159,0,0.00,2,2,0,2,29364,42024,4344,37045,0,0,0,0,0.00,0.00,0.00,0.00
2017-09-05 20:10:00,2,35750,0,0.00,2,2,0,2,28965,47607,5813,33700,0,0,0,0,0.00,0.00,0.00,0.00
2017-09-05 20:20:00,2,45333,0,0.00,2,2,0,2,39796,49704,2624,45722,0,0,0,0,0.00,0.00,0.00,0.00
2017-09-05 20:30:00,2,38681,0,0.00,2,2,0,2,30086,46852,5736,37738,0,0,0,0,0.00,0.00,0.00,0.00
2017-09-05 20:40:00,2,32510,0,0.00,2,2,0,2,21920,39652,6014,33772,0,0,0,0,0.00,0.00,0.00,0.00
2017-09-05 20:50:00,2,32943,0,0.00,2,2,0,2,20256,47774,9055,31865,0,0,0,0,0.00,0.00,0.00,0.00
2017-09-05 21:00:00,2,41081,0,0.00,2,2,0,2,32109,50000,5148,40428,0,0,0,0,0.00,0.00,0.00,0.00
2017-09-05 21:10:00,2,39604,0,0.00,2,2,0,2,29520,48787,5695,40590,0,0,0,0,0.00,0.00,0.00,0.00
2017-09-05 21:20:00,2,33747,0,0.00,2,2,0,2,29755,43163,4210,31530,0,0,0,0,0.00,0.00,0.00,0.00
2017-09-05 21:30:00,2,25819,0,0.00,2,2,0,2,18522,33906,4328,25328,0,0,0,0,0.00,0.00,0.00,0.00
2017-09-05 21:40:00,2,25272,0,0.00,2,2,0,2,18693,31031,4394,26296,0,0,0,0,0.00,0.00,0.00,0.00
2017-09-05 21:50:00,2,22050,0,0.00,2,2,0,2,16066,31405,4145,22409,0,0,0,0,0.00,0.00,0.00,0.00
2017-09-05 22:00:00,2,22281,0,0.00,2,2,0,2,15045,27652,3736,22441,0,0,0,0,0.00,0.00,0.00,0.00
2017-09-05 22:10:00,2,21478,0,0.00,2,2,0,2,12159,34638,6402,20896,0,0,0,0,0.00,0.00,0.00,0.00
2017-09-05 22:20:00,2,28188,0,0.00,2,2,0,2,19777,41429,6418,25187,0,0,0,0,0.00,0.00,0.00,0.00
2017-09-05 22:30:00,2,26064,0,0.00,2,2,0,2,21275,38528,4987,23843,0,0,0,0,0.00,0.00,0.00,0.00
2017-09-05 22:40:00,2,20776,0,0.00,2,2,0,2,10964,41576,9536,17960,0,0,0,0,0.00,0.00,0.00,0.00
2017-09-05 22:50:00,2,11767,0,0.00,2,2,0,2,8041,19029,2771,11348,0,0,0,0,0.00,0.00,0.00,0.00
2017-09-05 23:00:00,2,10317,0,0.00,2,2,0,2,7693,12770,1671,9936,0,0,0,0,0.00,0.00,0.00,0.00
2017-09-05 23:10:00,2,8964,5,0.00,2,2,0,2,6512,12052,1550,8964,0,10,5,5,0.00,0.00,0.00,0.00
2017-09-05 23:20:00,2,8430,10,0.00,2,2,0,2,4738,13326,2888,8766,10,10,0,10,0.00,0.00,0.00,0.00
2017-09-05 23:30:00,2,10321,10,0.00,2,2,0,2,4597,21000,4752,10112,10,10,0,10,0.00,0.00,0.00,0.00
2017-09-05 23:40:00,2,7577,10,0.00,2,2,0,2,3995,12398,2955,7040,10,10,0,10,0.00,0.00,0.00,0.00
2017-09-05 23:50:00,2,12350,8,0.00,2,2,0,2,6991,19495,4727,11904,0,10,4,10,0.00,0.00,0.00,0.00
